Rechercher aéroport 
image banner adimage banner adimage banner ad
image banner ad

CL46 - Quail Lake Sky Park

Situé à Gorman/Lancaster, United States

ICAO - CL46, IATA -

Données fournies par Airmate  

Information générale

Coordonnées: N34°46'4" W118°43'54"
Élévation : 3370 feet MSL.
Variation magnétique : 14° East
Voir autres Aéroports à California

Données opérationnelles

Special qualification required
Heure actuelle UTC:
Heure actuelle locale:
Météo à : KWJF - General Wm J Fox Airfield ( 47 km )
METAR: KWJF 210256Z 05004KT 10SM CLR 24/M03 A3003 RMK AO2 SLP156 T02441028 53015
TAF: KWJF 202334Z 2100/2124 09012KT P6SM SKC FM210200 11005KT P6SM SKC FM210500 VRB03KT P6SM SKC FM211800 07010KT P6SM SKC
Voir NOTAMs / SUP AIP / TFR affectant cet aéroport [VIEW]
Fréquences de communication: [VIEW]

Pistes:

Identifiant RWYQFULongueur (ft)Largeur (ft)SurfaceLDA (ft)
08310040ASPH
26310040ASPH

Coordonnées de l'aéroport

Adresse: Gorman/Lancaster United States

Vue satellite de CL46